Time,TemperatureF,DewpointF,PressureIn,WindDirection,WindDirectionDegrees,WindSpeedMPH,WindSpeedGustMPH,Humidity,HourlyPrecipIn,Conditions,Clouds,dailyrainin,SoftwareType,DateUTC
2013-03-31 00:03:00,30.0,-99.9,-100.00,South,186,4.0,5.0,-999,-99.99,,,-99.99,,2013-03-31 04:03:00,
2013-03-31 00:13:00,30.0,-99.9,-100.00,South,186,4.0,5.0,-999,-99.99,,,-99.99,,2013-03-31 04:13:00,
2013-03-31 00:23:00,30.0,-99.9,-100.00,South,186,4.0,5.0,-999,-99.99,,,-99.99,,2013-03-31 04:23:00,
2013-03-31 00:33:00,30.0,-99.9,-100.00,South,186,4.0,5.0,-999,-99.99,,,-99.99,,2013-03-31 04:33:00,
2013-03-31 00:40:00,29.0,-99.9,-100.00,South,185,2.0,6.0,-999,-99.99,,,-99.99,,2013-03-31 04:40:00,
2013-03-31 01:02:00,29.0,-99.9,-100.00,South,185,2.0,6.0,-999,-99.99,,,-99.99,,2013-03-31 05:02:00,
2013-03-31 01:13:00,29.0,-99.9,-100.00,South,185,2.0,6.0,-999,-99.99,,,-99.99,,2013-03-31 05:13:00,
2013-03-31 01:22:00,29.0,-99.9,-100.00,South,185,2.0,6.0,-999,-99.99,,,-99.99,,2013-03-31 05:22:00,
2013-03-31 01:32:00,29.0,-99.9,-100.00,South,185,2.0,6.0,-999,-99.99,,,-99.99,,2013-03-31 05:32:00,
2013-03-31 01:40:00,29.0,-99.9,-100.00,North,3,1.0,2.0,-999,-99.99,,,-99.99,,2013-03-31 05:40:00,
2013-03-31 02:02:00,29.0,-99.9,-100.00,North,3,1.0,2.0,-999,-99.99,,,-99.99,,2013-03-31 06:02:00,
2013-03-31 02:12:00,29.0,-99.9,-100.00,North,3,1.0,2.0,-999,-99.99,,,-99.99,,2013-03-31 06:12:00,
2013-03-31 02:23:00,29.0,-99.9,-100.00,North,3,1.0,2.0,-999,-99.99,,,-99.99,,2013-03-31 06:23:00,
2013-03-31 02:33:00,29.0,-99.9,-100.00,North,3,1.0,2.0,-999,-99.99,,,-99.99,,2013-03-31 06:33:00,
2013-03-31 02:40:00,41.0,-99.9,-100.00,West,265,3.0,11.0,-999,-99.99,,,-99.99,,2013-03-31 06:40:00,
2013-03-31 03:02:00,41.0,-99.9,-100.00,West,265,3.0,11.0,-999,-99.99,,,-99.99,,2013-03-31 07:02:00,
2013-03-31 03:12:00,41.0,-99.9,-100.00,West,265,3.0,11.0,-999,-99.99,,,-99.99,,2013-03-31 07:12:00,
2013-03-31 03:22:00,41.0,-99.9,-100.00,West,265,3.0,11.0,-999,-99.99,,,-99.99,,2013-03-31 07:22:00,
2013-03-31 03:33:00,41.0,-99.9,-100.00,West,265,3.0,11.0,-999,-99.99,,,-99.99,,2013-03-31 07:33:00,
2013-03-31 03:40:00,40.0,-99.9,-100.00,West,269,6.0,11.0,-999,-99.99,,,-99.99,,2013-03-31 07:40:00,
2013-03-31 04:02:00,40.0,-99.9,-100.00,West,269,6.0,11.0,-999,-99.99,,,-99.99,,2013-03-31 08:02:00,
2013-03-31 04:13:00,40.0,-99.9,-100.00,West,269,6.0,11.0,-999,-99.99,,,-99.99,,2013-03-31 08:13:00,
2013-03-31 04:22:00,40.0,-99.9,-100.00,West,269,6.0,11.0,-999,-99.99,,,-99.99,,2013-03-31 08:22:00,
2013-03-31 04:33:00,40.0,-99.9,-100.00,West,269,6.0,11.0,-999,-99.99,,,-99.99,,2013-03-31 08:33:00,
2013-03-31 04:40:00,39.0,-99.9,-100.00,West,265,5.0,10.0,-999,-99.99,,,-99.99,,2013-03-31 08:40:00,
2013-03-31 05:02:00,39.0,-99.9,-100.00,West,265,5.0,10.0,-999,-99.99,,,-99.99,,2013-03-31 09:02:00,
2013-03-31 05:12:00,39.0,-99.9,-100.00,West,265,5.0,10.0,-999,-99.99,,,-99.99,,2013-03-31 09:12:00,
2013-03-31 05:22:00,39.0,-99.9,-100.00,West,265,5.0,10.0,-999,-99.99,,,-99.99,,2013-03-31 09:22:00,
2013-03-31 05:33:00,39.0,-99.9,-100.00,West,265,5.0,10.0,-999,-99.99,,,-99.99,,2013-03-31 09:33:00,
2013-03-31 05:40:00,38.0,-99.9,-100.00,West,263,5.0,14.0,-999,-99.99,,,-99.99,,2013-03-31 09:40:00,
2013-03-31 06:03:00,38.0,-99.9,-100.00,West,263,5.0,14.0,-999,-99.99,,,-99.99,,2013-03-31 10:03:00,
2013-03-31 06:13:00,38.0,-99.9,-100.00,West,263,5.0,14.0,-999,-99.99,,,-99.99,,2013-03-31 10:13:00,
2013-03-31 06:24:00,38.0,-99.9,-100.00,West,263,5.0,14.0,-999,-99.99,,,-99.99,,2013-03-31 10:24:00,
2013-03-31 06:33:00,38.0,-99.9,-100.00,West,263,5.0,14.0,-999,-99.99,,,-99.99,,2013-03-31 10:33:00,
2013-03-31 06:40:00,38.0,-99.9,-100.00,WNW,290,3.0,10.0,-999,-99.99,,,-99.99,,2013-03-31 10:40:00,
2013-03-31 07:03:00,38.0,-99.9,-100.00,WNW,290,3.0,10.0,-999,-99.99,,,-99.99,,2013-03-31 11:03:00,
2013-03-31 07:12:00,38.0,-99.9,-100.00,WNW,290,3.0,10.0,-999,-99.99,,,-99.99,,2013-03-31 11:12:00,
2013-03-31 07:23:00,38.0,-99.9,-100.00,WNW,290,3.0,10.0,-999,-99.99,,,-99.99,,2013-03-31 11:23:00,
2013-03-31 07:33:00,38.0,-99.9,-100.00,WNW,290,3.0,10.0,-999,-99.99,,,-99.99,,2013-03-31 11:33:00,
2013-03-31 07:40:00,37.0,-99.9,-100.00,WNW,286,3.0,10.0,-999,-99.99,,,-99.99,,2013-03-31 11:40:00,
2013-03-31 08:03:00,37.0,-99.9,-100.00,WNW,286,3.0,10.0,-999,-99.99,,,-99.99,,2013-03-31 12:03:00,
2013-03-31 08:12:00,37.0,-99.9,-100.00,WNW,286,3.0,10.0,-999,-99.99,,,-99.99,,2013-03-31 12:12:00,
2013-03-31 08:23:00,37.0,-99.9,-100.00,WNW,286,3.0,10.0,-999,-99.99,,,-99.99,,2013-03-31 12:23:00,
2013-03-31 08:33:00,37.0,-99.9,-100.00,WNW,286,3.0,10.0,-999,-99.99,,,-99.99,,2013-03-31 12:33:00,
2013-03-31 08:40:00,37.0,-99.9,-100.00,West,276,6.0,11.0,-999,-99.99,,,-99.99,,2013-03-31 12:40:00,
2013-03-31 09:12:00,37.0,-99.9,-100.00,West,276,6.0,11.0,-999,-99.99,,,-99.99,,2013-03-31 13:12:00,
2013-03-31 09:23:00,37.0,-99.9,-100.00,West,276,6.0,11.0,-999,-99.99,,,-99.99,,2013-03-31 13:23:00,
2013-03-31 09:33:00,37.0,-99.9,-100.00,West,276,6.0,11.0,-999,-99.99,,,-99.99,,2013-03-31 13:33:00,
2013-03-31 09:40:00,39.0,-99.9,-100.00,WNW,284,4.0,20.0,-999,-99.99,,,-99.99,,2013-03-31 13:40:00,
2013-03-31 10:03:00,39.0,-99.9,-100.00,WNW,284,4.0,20.0,-999,-99.99,,,-99.99,,2013-03-31 14:03:00,
2013-03-31 10:13:00,39.0,-99.9,-100.00,WNW,284,4.0,20.0,-999,-99.99,,,-99.99,,2013-03-31 14:13:00,
2013-03-31 10:23:00,39.0,-99.9,-100.00,WNW,284,4.0,20.0,-999,-99.99,,,-99.99,,2013-03-31 14:23:00,
2013-03-31 10:33:00,39.0,-99.9,-100.00,WNW,284,4.0,20.0,-999,-99.99,,,-99.99,,2013-03-31 14:33:00,
2013-03-31 10:40:00,39.0,-99.9,-100.00,NW,312,10.0,18.0,-999,-99.99,,,-99.99,,2013-03-31 14:40:00,
2013-03-31 10:53:00,38.0,-99.9,-100.00,West,271,7.0,26.0,-999,-99.99,,,-99.99,,2013-03-31 14:53:00,
2013-03-31 11:03:00,39.0,-99.9,-100.00,NW,312,10.0,18.0,-999,-99.99,,,-99.99,,2013-03-31 15:03:00,
2013-03-31 11:13:00,39.0,-99.9,-100.00,NW,312,10.0,18.0,-999,-99.99,,,-99.99,,2013-03-31 15:13:00,
2013-03-31 11:23:00,39.0,-99.9,-100.00,NW,312,10.0,18.0,-999,-99.99,,,-99.99,,2013-03-31 15:23:00,
2013-03-31 11:34:00,39.0,-99.9,-100.00,NW,312,10.0,18.0,-999,-99.99,,,-99.99,,2013-03-31 15:34:00,
2013-03-31 11:54:00,38.0,-99.9,-100.00,WNW,282,8.0,25.0,-999,-99.99,,,-99.99,,2013-03-31 15:54:00,
2013-03-31 12:03:00,38.0,-99.9,-100.00,WNW,283,8.0,15.0,-999,-99.99,,,-99.99,,2013-03-31 16:03:00,
2013-03-31 12:14:00,38.0,-99.9,-100.00,WNW,283,8.0,15.0,-999,-99.99,,,-99.99,,2013-03-31 16:14:00,
2013-03-31 12:23:00,38.0,-99.9,-100.00,WNW,283,8.0,15.0,-999,-99.99,,,-99.99,,2013-03-31 16:23:00,
2013-03-31 12:34:00,38.0,-99.9,-100.00,WNW,282,8.0,25.0,-999,-99.99,,,-99.99,,2013-03-31 16:34:00,
2013-03-31 12:43:00,38.0,-99.9,-100.00,WNW,282,8.0,25.0,-999,-99.99,,,-99.99,,2013-03-31 16:43:00,
2013-03-31 12:54:00,38.0,-99.9,-100.00,WNW,282,8.0,25.0,-999,-99.99,,,-99.99,,2013-03-31 16:54:00,
2013-03-31 13:03:00,38.0,-99.9,-100.00,WNW,300,7.0,24.0,-999,-99.99,,,-99.99,,2013-03-31 17:03:00,
2013-03-31 13:13:00,38.0,-99.9,-100.00,WNW,300,7.0,24.0,-999,-99.99,,,-99.99,,2013-03-31 17:13:00,
2013-03-31 13:23:00,39.0,-99.9,-100.00,WNW,285,6.0,21.0,-999,-99.99,,,-99.99,,2013-03-31 17:23:00,
2013-03-31 13:33:00,39.0,-99.9,-100.00,WNW,285,6.0,21.0,-999,-99.99,,,-99.99,,2013-03-31 17:33:00,
2013-03-31 13:43:00,39.0,-99.9,-100.00,NW,320,13.0,27.0,-999,-99.99,,,-99.99,,2013-03-31 17:43:00,
2013-03-31 13:53:00,39.0,-99.9,-100.00,NW,320,13.0,27.0,-999,-99.99,,,-99.99,,2013-03-31 17:53:00,
2013-03-31 14:03:00,38.0,-99.9,-100.00,WNW,287,14.0,22.0,-999,-99.99,,,-99.99,,2013-03-31 18:03:00,
2013-03-31 14:13:00,38.0,-99.9,-100.00,WNW,287,14.0,22.0,-999,-99.99,,,-99.99,,2013-03-31 18:13:00,
2013-03-31 14:23:00,38.0,-99.9,-100.00,WNW,287,14.0,22.0,-999,-99.99,,,-99.99,,2013-03-31 18:23:00,
2013-03-31 14:33:00,39.0,-99.9,-100.00,NW,320,13.0,27.0,-999,-99.99,,,-99.99,,2013-03-31 18:33:00,
2013-03-31 14:43:00,39.0,-99.9,-100.00,NW,320,13.0,27.0,-999,-99.99,,,-99.99,,2013-03-31 18:43:00,
2013-03-31 14:53:00,36.0,-99.9,-100.00,NW,312,9.0,31.0,-999,-99.99,,,-99.99,,2013-03-31 18:53:00,
2013-03-31 15:03:00,36.0,-99.9,-100.00,NW,312,9.0,31.0,-999,-99.99,,,-99.99,,2013-03-31 19:03:00,
2013-03-31 15:13:00,36.0,-99.9,-100.00,NW,305,11.0,31.0,-999,-99.99,,,-99.99,,2013-03-31 19:13:00,
2013-03-31 15:23:00,36.0,-99.9,-100.00,NW,305,11.0,31.0,-999,-99.99,,,-99.99,,2013-03-31 19:23:00,
2013-03-31 15:33:00,36.0,-99.9,-100.00,NW,312,9.0,31.0,-999,-99.99,,,-99.99,,2013-03-31 19:33:00,
2013-03-31 15:43:00,36.0,-99.9,-100.00,NW,312,9.0,31.0,-999,-99.99,,,-99.99,,2013-03-31 19:43:00,
2013-03-31 15:54:00,32.0,-99.9,-100.00,WNW,298,8.0,0.0,-999,-99.99,,,-99.99,,2013-03-31 19:54:00,
2013-03-31 16:03:00,35.0,-99.9,-100.00,NW,326,12.0,23.0,-999,-99.99,,,-99.99,,2013-03-31 20:03:00,
2013-03-31 16:13:00,35.0,-99.9,-100.00,NW,326,12.0,23.0,-999,-99.99,,,-99.99,,2013-03-31 20:13:00,
2013-03-31 16:23:00,35.0,-99.9,-100.00,NW,326,12.0,23.0,-999,-99.99,,,-99.99,,2013-03-31 20:23:00,
2013-03-31 16:34:00,34.0,-99.9,-100.00,NW,317,14.0,47.0,-999,-99.99,,,-99.99,,2013-03-31 20:34:00,
2013-03-31 16:44:00,30.0,-99.9,-100.00,NNW,337,17.0,0.0,-999,-99.99,,,-99.99,,2013-03-31 20:44:00,
2013-03-31 16:53:00,30.0,-99.9,-100.00,NNW,337,17.0,0.0,-999,-99.99,,,-99.99,,2013-03-31 20:53:00,
2013-03-31 17:03:00,29.0,-99.9,-100.00,NW,319,9.0,31.0,-999,-99.99,,,-99.99,,2013-03-31 21:03:00,
2013-03-31 17:13:00,29.0,-99.9,-100.00,NW,319,9.0,31.0,-999,-99.99,,,-99.99,,2013-03-31 21:13:00,
2013-03-31 17:23:00,30.0,-99.9,-100.00,NNW,337,17.0,0.0,-999,-99.99,,,-99.99,,2013-03-31 21:23:00,
2013-03-31 17:34:00,28.0,-99.9,-100.00,NNW,336,19.0,29.0,-999,-99.99,,,-99.99,,2013-03-31 21:34:00,
2013-03-31 17:44:00,28.0,-99.9,-100.00,NNW,336,19.0,29.0,-999,-99.99,,,-99.99,,2013-03-31 21:44:00,
2013-03-31 17:54:00,28.0,-99.9,-100.00,NNW,336,19.0,29.0,-999,-99.99,,,-99.99,,2013-03-31 21:54:00,
2013-03-31 18:04:00,28.0,-99.9,-100.00,NNW,342,20.0,29.0,-999,-99.99,,,-99.99,,2013-03-31 22:04:00,
2013-03-31 18:13:00,28.0,-99.9,-100.00,NNW,342,20.0,29.0,-999,-99.99,,,-99.99,,2013-03-31 22:13:00,
2013-03-31 18:24:00,28.0,-99.9,-100.00,NNW,338,18.0,0.0,-999,-99.99,,,-99.99,,2013-03-31 22:24:00,
2013-03-31 18:34:00,28.0,-99.9,-100.00,NNW,338,18.0,0.0,-999,-99.99,,,-99.99,,2013-03-31 22:34:00,
2013-03-31 18:43:00,28.0,-99.9,-100.00,NNW,338,18.0,0.0,-999,-99.99,,,-99.99,,2013-03-31 22:43:00,
2013-03-31 18:54:00,26.0,-99.9,-100.00,NNW,343,17.0,32.0,-999,-99.99,,,-99.99,,2013-03-31 22:54:00,
2013-03-31 19:00:00,26.0,-99.9,-100.00,NNW,343,17.0,32.0,-999,-99.99,,,-99.99,,2013-03-31 23:00:00,
2013-03-31 19:03:00,26.0,-99.9,-100.00,NNW,342,17.0,32.0,-999,-99.99,,,-99.99,,2013-03-31 23:03:00,
2013-03-31 19:13:00,26.0,-99.9,-100.00,NNW,342,17.0,32.0,-999,-99.99,,,-99.99,,2013-03-31 23:13:00,
2013-03-31 19:23:00,26.0,-99.9,-100.00,NNW,343,17.0,32.0,-999,-99.99,,,-99.99,,2013-03-31 23:23:00,
2013-03-31 19:33:00,26.0,-99.9,-100.00,NNW,343,17.0,32.0,-999,-99.99,,,-99.99,,2013-03-31 23:33:00,
2013-03-31 19:43:00,26.0,-99.9,-100.00,NNW,343,17.0,32.0,-999,-99.99,,,-99.99,,2013-03-31 23:43:00,
2013-03-31 19:54:00,26.0,-99.9,-100.00,NNW,343,17.0,32.0,-999,-99.99,,,-99.99,,2013-03-31 23:54:00,
2013-03-31 20:13:00,26.0,-99.9,-100.00,NNW,342,20.0,32.0,-999,-99.99,,,-99.99,,2013-04-01 00:13:00,
2013-03-31 20:23:00,26.0,-99.9,-100.00,NNW,338,13.0,32.0,-999,-99.99,,,-99.99,,2013-04-01 00:23:00,
2013-03-31 20:33:00,26.0,-99.9,-100.00,NNW,338,13.0,32.0,-999,-99.99,,,-99.99,,2013-04-01 00:33:00,
2013-03-31 20:40:00,26.0,-99.9,-100.00,NNW,344,17.0,24.0,-999,-99.99,,,-99.99,,2013-04-01 00:40:00,
2013-03-31 20:43:00,26.0,-99.9,-100.00,NNW,338,13.0,32.0,-999,-99.99,,,-99.99,,2013-04-01 00:43:00,
2013-03-31 20:53:00,26.0,-99.9,-100.00,NNW,338,13.0,32.0,-999,-99.99,,,-99.99,,2013-04-01 00:53:00,
2013-03-31 21:03:00,26.0,-99.9,-100.00,NNW,344,17.0,24.0,-999,-99.99,,,-99.99,,2013-04-01 01:03:00,
2013-03-31 21:13:00,26.0,-99.9,-100.00,NNW,344,17.0,24.0,-999,-99.99,,,-99.99,,2013-04-01 01:13:00,
2013-03-31 21:23:00,26.0,-99.9,-100.00,NNW,344,17.0,24.0,-999,-99.99,,,-99.99,,2013-04-01 01:23:00,
2013-03-31 21:33:00,26.0,-99.9,-100.00,NNW,344,17.0,24.0,-999,-99.99,,,-99.99,,2013-04-01 01:33:00,
2013-03-31 21:53:00,26.0,-99.9,-100.00,NNW,328,10.0,27.0,-999,-99.99,,,-99.99,,2013-04-01 01:53:00,
2013-03-31 22:03:00,26.0,-99.9,-100.00,North,355,21.0,29.0,-999,-99.99,,,-99.99,,2013-04-01 02:03:00,
2013-03-31 22:13:00,26.0,-99.9,-100.00,North,355,21.0,29.0,-999,-99.99,,,-99.99,,2013-04-01 02:13:00,
2013-03-31 22:23:00,26.0,-99.9,-100.00,North,355,21.0,29.0,-999,-99.99,,,-99.99,,2013-04-01 02:23:00,
2013-03-31 22:33:00,26.0,-99.9,-100.00,North,355,21.0,29.0,-999,-99.99,,,-99.99,,2013-04-01 02:33:00,
2013-03-31 22:43:00,25.0,-99.9,-100.00,NNW,347,19.0,0.0,-999,-99.99,,,-99.99,,2013-04-01 02:43:00,
2013-03-31 22:53:00,25.0,-99.9,-100.00,NNW,347,19.0,0.0,-999,-99.99,,,-99.99,,2013-04-01 02:53:00,
2013-03-31 23:03:00,25.0,-99.9,-100.00,North,355,19.0,29.0,-999,-99.99,,,-99.99,,2013-04-01 03:03:00,
2013-03-31 23:13:00,25.0,-99.9,-100.00,North,355,19.0,29.0,-999,-99.99,,,-99.99,,2013-04-01 03:13:00,
2013-03-31 23:23:00,25.0,-99.9,-100.00,North,352,19.0,0.0,-999,-99.99,,,-99.99,,2013-04-01 03:23:00,
2013-03-31 23:35:00,25.0,-99.9,-100.00,North,352,19.0,0.0,-999,-99.99,,,-99.99,,2013-04-01 03:35:00,
2013-03-31 23:44:00,25.0,-99.9,-100.00,North,352,19.0,0.0,-999,-99.99,,,-99.99,,2013-04-01 03:44:00,
2013-03-31 23:53:00,25.0,-99.9,-100.00,North,352,19.0,0.0,-999,-99.99,,,-99.99,,2013-04-01 03:53:00,